Regional Weather Roundup
Issued by NWS Midland/Odessa, TX

Home | Current Version | Previous Version | Text Only | Print | Product List | Glossary On
Versions: 1 2 3 4 5 6 7 8 9 10 11 12 13 14 15 16 17 18 19 20 21 22 23 24 25 26 27 28 29 30 31 32 33 34 35 36 37 38 39 40 41 42 43 44 45 46 47 48 49 50
000
ASUS44 KMAF 190010
RWRMAF
MIDLAND AREA WEATHER ROUNDUP
NATIONAL WEATHER SERVICE MIDLAND TX
600 PM CST THU DEC 18 2014

...IN SOUTHWEST TEXAS AND SOUTHEAST NEW MEXICO...

CITY           SKY/WX    TMP DP  RH WIND       PRES   REMARKS
ALPINE         CLOUDY    54  31  41 SE7       30.11S
ANDREWS        FAIR      56  34  43 CALM      30.04S
ARTESIA        CLOUDY    54  34  47 S8        30.03S
BIG SPRING     CLOUDY    59  35  40 CALM      30.06S
CARLSBAD       CLOUDY    57  34  41 CALM      30.01S
DRYDEN           N/A     58  40  51 N6        30.00
FORT STOCKTON  MOCLDY    57  33  40 E7        30.03R
GUAD PASS      NOT AVBL
HOBBS          CLEAR     55  32  41 CALM      30.04S
MARFA          MOCLDY    52  28  40 SE6       30.08S
MIDLAND AIRPK  CLOUDY    60  35  38 E3        30.04R
MIDLAND INTL   CLOUDY    59  35  40 E6        30.03R
ODESSA         CLOUDY    59  31  34 MISG      30.04R
PECOS          MOCLDY    58  32  36 W6        30.03R
PRESIDIO       FAIR      61  32  33 CALM      30.01S
SEMINOLE       CLOUDY    56  30  37 NE5       30.04S
SNYDER         PTCLDY    53  36  54 NE12      30.07S
WINK           CLOUDY    61  29  29 CALM      30.01R
$$
...OTHER STATIONS IN TEXAS...

CITY           SKY/WX    TMP DP  RH WIND       PRES   REMARKS
ABILENE        CLOUDY    52  41  66 N12       30.08R
AMARILLO       MOCLDY    34  28  79 NE7       30.11R WCI  28
AUSTIN         CLOUDY    57  54  89 NE12      30.06R
BROWNSVILLE    CLOUDY    73  67  81 SE10      29.96S
CORPUS CHRISTI CLOUDY    71  67  87 SE9       29.97S
DALLAS FTW     CLOUDY    48  43  82 NE7       30.12S
DEL RIO        MOCLDY    64  55  72 CALM      29.98S
EL PASO        CLOUDY    54  35  48 S9        30.05R
HOUSTON INT    CLOUDY    64  60  87 NE9       30.06R
LUBBOCK        PTCLDY    47  35  63 E10       30.05R
SAN ANGELO     CLOUDY    60  38  43 E6        30.04R
SAN ANTONIO    CLOUDY    63  58  83 E8        30.02S
WACO           CLOUDY    50  47  89 NE10      30.11R
WICHITA FALLS  NOT AVBL
$$
...OTHER LOCATIONS IN NEW MEXICO...

CITY           SKY/WX    TMP DP  RH WIND       PRES   REMARKS
ALAMAGORDO     CLOUDY    48  34  57 S8        30.07R
ALBUQUERQUE    CLOUDY    42  26  53 NW8       30.10R WCI  37
CANNON AFB     CLOUDY    50  20  31 W6        30.04R
CLOVIS         CLOUDY    48  19  32 W5        30.04R
HOLLOMAN AFB   CLOUDY    51  34  53 VRB7      30.05R
ROSWELL        CLOUDY    52  31  44 E5        30.02F
RUIDOSO        CLOUDY    37  27  65 SW9       30.09R WCI  31
SANTA FE       CLOUDY    35  24  64 W3        30.07S
TRUTH OR CONSE LGT RAIN  44  37  76 E7        30.06R
TUCUMCARI      CLOUDY    43  31  62 E6        30.04R WCI  39
$$


USA.gov is the U.S. government's official web portal to all federal, state and local government web resources and services.